STARLINK-32396, 61633

Orbit data source: Space-Track

STARLINK-32396, 61633 is a payload satellite owned by SpaceX/Seattle (US) in LEO that was launched on Wed, 23 Oct 2024 UTC via an FALCON 9 launch vehicle from the Air Force Eastern Test Range (AFETR). Payload-class satellites include a variety of spacecraft equipped with specific instruments for various scientific and technological missions. These include communications satellites like Starlink; space stations such as the ISS; scientific satellites like the Hubble; Earth observation satellites from companies like Planet Labs, Umbra, and HawkEye 360; GPS; miniature CubeSats for education and research; and military/defense satellites.

Loading next visibility...
Identifier
61633, 2024-191N
Orbit
LEO
Country
Flag of USUS
Related business
Manufacturer
SpaceX/Seattle
Mission
Operational Commercial Communications
Bus & Motor
STARLINK V2M, Unknown motor
Mass
730 kg wet, ~700 kg dry
Launch date (UTC)
2024-10-23 (1 year ago)
Launch vehicle
FALCON 9
Launch site
Air Force Eastern Test Range (AFETR)
Object type
Payload
Rocket body
Debris
Shape & HBR
Box + 2 Pan, 17.7 m
Radar Cross Section
33.884 m², Large (>1 m²)

Expand to show TLE details & history
Last TLE update: 17 hours ago

TLE from 17 hours ago
0 STARLINK-32396
1 61633U 24191N   26062.40512466  .00002328  00000-0  94119-4 0  9993
2 61633  43.0039 193.6052 0001957 275.5313  84.5315 15.27571963 76537
Epoch: 2026-03-03T09:43Z
TLE epoch observation values (Epoch: 2026-03-03T09:43:22.770Z)
Latitude
-0.00006°
Longitude
-113.42439°
Altitude
482.721 km
Speed
7.626 km/s
True Right ascension
12h 54m 25s
True Declination
0° 00' 00"
Sunlit
Object was in full shadow at epoch
Visualization orbit readout
Latitude
Unknown
Longitude
Unknown
Altitude
Unknown
Speed
Unknown
Apparent Right ascension
Unknown
Apparent Declination
Unknown
Sunlit
N/A
Visualization observer readout
Local Sidereal Time
06:18:58
Azimuth
Unknown
Elevation
Unknown
Doppler factor
Unknown
Orbital elements
Apogee altitude
486.361 km
Perigee altitude
483.675 km
Semi-major axis
6,863.155 km
Eccentricity
0.0002
Inclination
43.0039°
RAAN
193.6052°
Arg. of periapsis
275.5313°
True anomaly
84.55382°
Mean anomaly
84.5315°
Eccentric anomaly
84.54266°
Mean motion
3.81731 °/min
Orbital period
94.31 mins
BSTAR
0.000094119
Loading maneuver chart data...
Computing Atmospheric mass density...
Loading historical data...
Loading historical data...
Loading historical data...
Loading historical data...
Loading historical data...
Loading historical data...
Loading historical data...

Documentation

Showing up to 5 results
|